DW4253 Weather Reports


Display with metric or nautical units.
time (UTC)temp
F
wind
direction
speed
MPH
gust
MPH
rain 1hr
in
rain 24hr
in
rain mn
in
humidity
%
barometer
mb
20260506190304 52 78 1.0 8.0 0.00 0.02 0.02 75 1012.2
20260506180303 52 89 3.0 12.0 0.00 0.02 0.02 76 1011.7
20260506170804 52 3 2.0 5.0 0.00 0.02 0.02 79 1011.1
20260506150804 54 48 3.0 8.0 0.00 0.02 0.02 71 1010.9
20260506140303 56 74 3.0 12.0 0.00 0.02 0.02 67 1010.5
20260506120304 58 59 2.0 14.0 0.00 0.02 0.02 66 1009.8
20260506110804 58 83 4.0 9.0 0.00 0.02 0.02 67 1009.8
20260506100804 59 80 3.0 7.0 0.00 0.02 0.02 72 1009.6
20260506100304 59 91 2.0 16.0 0.00 0.02 0.02 73 1009.5
20260506080804 52 32 1.0 5.0 0.00 0.02 0.02 93 1009.1
20260506080303 52 0 2.0 8.0 0.00 0.02 0.02 94 1009.1
20260506070804 50 352 2.0 7.0 0.00 0.02 0.02 96 1009.0
20260506050803 48 3 1.0 5.0 0.00 0.02 0.01 95 1008.8
20260506050304 48 32 1.0 7.0 0.00 0.02 0.01 95 1008.8
20260506030803 48 351 2.0 6.0 0.00 0.01 0.00 94 1009.0
20260506030304 48 9 3.0 10.0 0.00 0.01 0.00 94 1009.0
20260506010803 49 15 2.0 3.0 0.00 0.01 0.00 88 1009.3
20260506010304 49 5 2.0 8.0 0.00 0.01 0.00 88 1009.3
20260506000304 50 21 3.0 10.0 0.00 0.02 0.00 86 1009.8
20260505230805 50 66 2.0 12.0 0.00 0.09 0.00 86 1009.9
20260505200303 52 89 2.0 10.0 0.00 0.34 0.15 86 1010.5